Simultaneous Nadir Overpasses (SNOs) Predictions

Prediction of SNOs over PacNW region [( 10.00, 139.50) to ( 22.70, 165.60)] between AQUA and NPP Satellites:

Table of predicted SNOs over PacNW region for the next 30.0 days since TLE Epoch: 6/22/2018
Index Date (AQUA) Time (AQUA) AQUA Lat,Lon Date (NPP) Time (NPP) NPP Lat,Lon Distance(km) Time Diff (sec)
1 06/28/2018 15:10:15 22.60, 159.85 06/28/2018 15:10:54 23.17, 157.32 267.10 39
2 07/06/2018 15:59:40 22.63, 147.49 07/06/2018 16:01:36 23.23, 144.66 297.75 116
3 07/14/2018 15:10:12 22.61, 159.85 07/14/2018 15:10:50 23.17, 157.35 263.71 38




NCC Satellite Simultaneous Nadir Overpasses (SNOs) Prediction Service
